TimeMST,TemperatureF,Dew PointF,Humidity,Sea Level PressureIn,VisibilityMPH,Wind Direction,Wind SpeedMPH,Gust SpeedMPH,PrecipitationIn,Events,Conditions,WindDirDegrees,DateUTC
12:53 AM,30.0,25.0,82,29.84,10.0,NNE,8.1,-,N/A,,Clear,30,2012-11-18 07:53:00
1:53 AM,30.9,25.0,79,29.81,10.0,Variable,3.5,-,N/A,,Clear,0,2012-11-18 08:53:00
2:53 AM,28.0,24.1,85,29.81,10.0,Calm,Calm,-,N/A,,Clear,0,2012-11-18 09:53:00
3:53 AM,25.0,21.9,88,29.81,10.0,SW,4.6,-,N/A,,Clear,230,2012-11-18 10:53:00
4:53 AM,25.0,23.0,92,29.84,10.0,Calm,Calm,-,N/A,,Clear,0,2012-11-18 11:53:00
5:53 AM,26.1,23.0,88,29.83,10.0,South,5.8,-,N/A,,Clear,170,2012-11-18 12:53:00
6:53 AM,28.9,26.1,89,29.82,10.0,SSW,6.9,-,N/A,,Clear,200,2012-11-18 13:53:00
7:53 AM,33.1,28.0,82,29.83,10.0,North,-9999.0,-,N/A,,Clear,0,2012-11-18 14:53:00
8:53 AM,32.0,28.9,88,29.84,10.0,North,5.8,-,N/A,,Clear,350,2012-11-18 15:53:00
9:53 AM,37.0,30.9,79,29.83,10.0,Calm,Calm,-,N/A,,Clear,0,2012-11-18 16:53:00
10:53 AM,37.0,33.1,86,29.82,10.0,Calm,Calm,-,N/A,,Partly Cloudy,0,2012-11-18 17:53:00
11:53 AM,39.9,32.0,73,29.82,10.0,NW,4.6,-,N/A,,Scattered Clouds,320,2012-11-18 18:53:00
12:53 PM,41.0,33.1,73,29.83,10.0,Calm,Calm,-,N/A,,Clear,0,2012-11-18 19:53:00
1:53 PM,43.0,33.1,68,29.85,10.0,Calm,Calm,-,N/A,,Clear,0,2012-11-18 20:53:00
2:53 PM,44.1,33.1,65,29.88,10.0,SSE,3.5,-,N/A,,Clear,150,2012-11-18 21:53:00
3:53 PM,41.0,34.0,76,29.93,10.0,Calm,Calm,-,N/A,,Clear,0,2012-11-18 22:53:00
4:53 PM,43.0,33.1,68,29.98,10.0,WNW,12.7,-,N/A,,Clear,300,2012-11-18 23:53:00
5:53 PM,44.1,34.0,68,30.00,10.0,WNW,8.1,-,N/A,,Mostly Cloudy,290,2012-11-19 00:53:00
6:53 PM,41.0,33.1,73,30.03,10.0,South,4.6,-,N/A,,Mostly Cloudy,180,2012-11-19 01:53:00
7:53 PM,39.0,33.1,79,30.04,10.0,Calm,Calm,-,N/A,,Scattered Clouds,0,2012-11-19 02:53:00
8:53 PM,39.9,34.0,79,30.06,10.0,Calm,Calm,-,0.00,Rain,Light Rain,0,2012-11-19 03:53:00
9:53 PM,42.1,34.0,73,30.08,10.0,Calm,Calm,-,0.00,Rain,Light Rain,0,2012-11-19 04:53:00
10:53 PM,37.0,33.1,86,30.09,10.0,SW,4.6,-,0.00,,Overcast,220,2012-11-19 05:53:00
11:53 PM,36.0,33.1,89,30.09,10.0,NNE,4.6,-,N/A,,Overcast,30,2012-11-19 06:53:00